Year,Month,Day,Hour,Minute,Value (Times are PST for temperature in C)
2008,07,03,00,00,20.20
2008,07,03,00,01,20.20
2008,07,03,00,02,20.20
2008,07,03,00,03,20.20
2008,07,03,00,04,20.10
2008,07,03,00,05,20.10
2008,07,03,00,06,20.10
2008,07,03,00,07,20.10
2008,07,03,00,08,20.10
2008,07,03,00,09,20.10
2008,07,03,00,10,20.10
2008,07,03,00,11,20.10
2008,07,03,00,12,20.10
2008,07,03,00,13,20.10
2008,07,03,00,14,20.10
2008,07,03,00,15,20.10
2008,07,03,00,16,20.10
2008,07,03,00,17,20.10
2008,07,03,00,18,20.10
2008,07,03,00,19,20.10
2008,07,03,00,20,20.20
2008,07,03,00,21,20.20
2008,07,03,00,22,20.20
2008,07,03,00,23,20.20
2008,07,03,00,24,20.20
2008,07,03,00,25,20.20
2008,07,03,00,26,20.20
2008,07,03,00,27,20.10
2008,07,03,00,28,20.10
2008,07,03,00,29,20.10
2008,07,03,00,30,20.10
2008,07,03,00,31,20.00
2008,07,03,00,32,19.90
2008,07,03,00,33,19.90
2008,07,03,00,34,19.90
2008,07,03,00,35,19.90
2008,07,03,00,36,19.90
2008,07,03,00,37,19.90
2008,07,03,00,38,19.90
2008,07,03,00,39,19.90
2008,07,03,00,40,19.90
2008,07,03,00,41,19.80
2008,07,03,00,42,19.80
2008,07,03,00,43,19.80
2008,07,03,00,44,19.80
2008,07,03,00,45,19.80
2008,07,03,00,46,19.70
2008,07,03,00,47,19.60
2008,07,03,00,48,19.50
2008,07,03,00,49,19.50
2008,07,03,00,50,19.40
2008,07,03,00,51,19.30
2008,07,03,00,52,19.30
2008,07,03,00,53,19.20
2008,07,03,00,54,19.10
2008,07,03,00,55,19.10
2008,07,03,00,56,19.10
2008,07,03,00,57,19.00
2008,07,03,00,58,18.90
2008,07,03,00,59,18.90
2008,07,03,01,00,18.90
2008,07,03,01,01,18.90
2008,07,03,01,02,18.80
2008,07,03,01,03,18.80
2008,07,03,01,04,18.80
2008,07,03,01,05,18.70
2008,07,03,01,06,18.70
2008,07,03,01,07,18.70
2008,07,03,01,08,18.70
2008,07,03,01,09,18.70
2008,07,03,01,10,18.70
2008,07,03,01,11,18.70
2008,07,03,01,12,18.70
2008,07,03,01,13,18.60
2008,07,03,01,14,18.60
2008,07,03,01,15,18.60
2008,07,03,01,16,18.50
2008,07,03,01,17,18.50
2008,07,03,01,18,18.50
2008,07,03,01,19,18.40
2008,07,03,01,20,18.40
2008,07,03,01,21,18.40
2008,07,03,01,22,18.40
2008,07,03,01,23,18.40
2008,07,03,01,24,18.30
2008,07,03,01,25,18.30
2008,07,03,01,26,18.30
2008,07,03,01,27,18.20
2008,07,03,01,28,18.20
2008,07,03,01,29,18.20
2008,07,03,01,30,18.20
2008,07,03,01,31,18.20
2008,07,03,01,32,18.20
2008,07,03,01,33,18.10
2008,07,03,01,34,18.10
2008,07,03,01,35,18.10
2008,07,03,01,36,18.10
2008,07,03,01,37,18.10
2008,07,03,01,38,18.10
2008,07,03,01,39,18.10
2008,07,03,01,40,18.10
2008,07,03,01,41,18.10
2008,07,03,01,42,18.10
2008,07,03,01,43,18.10
2008,07,03,01,44,18.10
2008,07,03,01,45,18.10
2008,07,03,01,46,18.10
2008,07,03,01,47,18.10
2008,07,03,01,48,18.10
2008,07,03,01,49,18.10
2008,07,03,01,50,18.10
2008,07,03,01,51,18.10
2008,07,03,01,52,18.10
2008,07,03,01,53,18.10
2008,07,03,01,54,18.00
2008,07,03,01,55,17.90
2008,07,03,01,56,17.90
2008,07,03,01,57,17.90
2008,07,03,01,58,17.90
2008,07,03,01,59,17.90
2008,07,03,02,00,17.90
2008,07,03,02,01,17.90
2008,07,03,02,02,17.90
2008,07,03,02,03,17.90
2008,07,03,02,04,17.90
2008,07,03,02,05,17.90
2008,07,03,02,06,17.90
2008,07,03,02,07,17.90
2008,07,03,02,08,17.90
2008,07,03,02,09,17.90
2008,07,03,02,10,17.90
2008,07,03,02,11,17.80
2008,07,03,02,12,17.80
2008,07,03,02,13,17.80
2008,07,03,02,14,17.80
2008,07,03,02,15,17.70
2008,07,03,02,16,17.70
2008,07,03,02,17,17.70
2008,07,03,02,18,17.70
2008,07,03,02,19,17.70
2008,07,03,02,20,17.70
2008,07,03,02,21,17.70
2008,07,03,02,22,17.70
2008,07,03,02,23,17.70
2008,07,03,02,24,17.70
2008,07,03,02,25,17.70
2008,07,03,02,26,17.70
2008,07,03,02,27,17.70
2008,07,03,02,28,17.70
2008,07,03,02,29,17.70
2008,07,03,02,30,17.70
2008,07,03,02,31,17.70
2008,07,03,02,32,17.70
2008,07,03,02,33,17.70
2008,07,03,02,34,17.70
2008,07,03,02,35,17.70
2008,07,03,02,36,17.70
2008,07,03,02,37,17.70
2008,07,03,02,38,17.70
2008,07,03,02,39,17.70
2008,07,03,02,40,17.70
2008,07,03,02,41,17.70
2008,07,03,02,42,17.70
2008,07,03,02,43,17.70
2008,07,03,02,44,17.70
2008,07,03,02,45,17.70
2008,07,03,02,46,17.70
2008,07,03,02,47,17.70
2008,07,03,02,48,17.70
2008,07,03,02,49,17.80
2008,07,03,02,50,17.80
2008,07,03,02,51,17.90
2008,07,03,02,52,17.90
2008,07,03,02,53,17.90
2008,07,03,02,54,17.90
2008,07,03,02,55,17.90
2008,07,03,02,56,17.90
2008,07,03,02,57,18.00
2008,07,03,02,58,18.10
2008,07,03,02,59,18.10
2008,07,03,03,00,18.10
2008,07,03,03,01,18.10
2008,07,03,03,02,18.20
2008,07,03,03,03,18.20
2008,07,03,03,04,18.20
2008,07,03,03,05,18.20
2008,07,03,03,06,18.20
2008,07,03,03,07,18.30
2008,07,03,03,08,18.30
2008,07,03,03,09,18.20
2008,07,03,03,10,18.20
2008,07,03,03,11,18.20
2008,07,03,03,12,18.20
2008,07,03,03,13,18.20
2008,07,03,03,14,18.10
2008,07,03,03,15,18.10
2008,07,03,03,16,18.10
2008,07,03,03,17,18.00
2008,07,03,03,18,17.90
2008,07,03,03,19,17.90
2008,07,03,03,20,17.90
2008,07,03,03,21,17.90
2008,07,03,03,22,17.80
2008,07,03,03,23,17.70
2008,07,03,03,24,17.70
2008,07,03,03,25,17.70
2008,07,03,03,26,17.70
2008,07,03,03,27,17.60
2008,07,03,03,28,17.60
2008,07,03,03,29,17.50
2008,07,03,03,30,17.50
2008,07,03,03,31,17.50
2008,07,03,03,32,17.40
2008,07,03,03,33,17.40
2008,07,03,03,34,17.30
2008,07,03,03,35,17.30
2008,07,03,03,36,17.30
2008,07,03,03,37,17.20
2008,07,03,03,38,17.20
2008,07,03,03,39,17.10
2008,07,03,03,40,17.10
2008,07,03,03,41,17.10
2008,07,03,03,42,17.10
2008,07,03,03,43,17.10
2008,07,03,03,44,17.10
2008,07,03,03,45,17.10
2008,07,03,03,46,17.10
2008,07,03,03,47,17.10
2008,07,03,03,48,17.10
2008,07,03,03,49,17.20
2008,07,03,03,50,17.20
2008,07,03,03,51,17.30
2008,07,03,03,52,17.30
2008,07,03,03,53,17.40
2008,07,03,03,54,17.40
2008,07,03,03,55,17.50
2008,07,03,03,56,17.50
2008,07,03,03,57,17.50
2008,07,03,03,58,17.50
2008,07,03,03,59,17.50
2008,07,03,04,00,17.50
2008,07,03,04,01,17.50
2008,07,03,04,02,17.50
2008,07,03,04,03,17.50
2008,07,03,04,04,17.50
2008,07,03,04,05,17.50
2008,07,03,04,06,17.60
2008,07,03,04,07,17.60
2008,07,03,04,08,17.60
2008,07,03,04,09,17.50
2008,07,03,04,10,17.50
2008,07,03,04,11,17.50
2008,07,03,04,12,17.50
2008,07,03,04,13,17.40
2008,07,03,04,14,17.40
2008,07,03,04,15,17.40
2008,07,03,04,16,17.40
2008,07,03,04,17,17.30
2008,07,03,04,18,17.30
2008,07,03,04,19,17.30
2008,07,03,04,20,17.30
2008,07,03,04,21,17.30
2008,07,03,04,22,17.30
2008,07,03,04,23,17.30
2008,07,03,04,24,17.30
2008,07,03,04,25,17.30
2008,07,03,04,26,17.30
2008,07,03,04,27,17.30
2008,07,03,04,28,17.30
2008,07,03,04,29,17.30
2008,07,03,04,30,17.30
2008,07,03,04,31,17.30
2008,07,03,04,32,17.30
2008,07,03,04,33,17.30
2008,07,03,04,34,17.20
2008,07,03,04,35,17.20
2008,07,03,04,36,17.20
2008,07,03,04,37,17.20
2008,07,03,04,38,17.20
2008,07,03,04,39,17.20
2008,07,03,04,40,17.10
2008,07,03,04,41,17.10
2008,07,03,04,42,17.10
2008,07,03,04,43,17.10
2008,07,03,04,44,17.10
2008,07,03,04,45,17.10
2008,07,03,04,46,17.10
2008,07,03,04,47,17.10
2008,07,03,04,48,17.10
2008,07,03,04,49,17.10
2008,07,03,04,50,17.10
2008,07,03,04,51,17.10
2008,07,03,04,52,17.10
2008,07,03,04,53,17.10
2008,07,03,04,54,17.10
2008,07,03,04,55,17.00
2008,07,03,04,56,17.00
2008,07,03,04,57,17.00
2008,07,03,04,58,17.00
2008,07,03,04,59,17.00
2008,07,03,05,00,17.00
2008,07,03,05,01,17.00
2008,07,03,05,02,16.90
2008,07,03,05,03,16.90
2008,07,03,05,04,16.90
2008,07,03,05,05,16.90
2008,07,03,05,06,16.90
2008,07,03,05,07,16.90
2008,07,03,05,08,16.90
2008,07,03,05,09,16.90
2008,07,03,05,10,16.90
2008,07,03,05,11,16.90
2008,07,03,05,12,16.90
2008,07,03,05,13,16.90
2008,07,03,05,14,16.90
2008,07,03,05,15,17.00
2008,07,03,05,16,17.00
2008,07,03,05,17,17.00
2008,07,03,05,18,17.00
2008,07,03,05,19,17.10
2008,07,03,05,20,17.10
2008,07,03,05,21,17.10
2008,07,03,05,22,17.10
2008,07,03,05,23,17.10
2008,07,03,05,24,17.20
2008,07,03,05,25,17.20
2008,07,03,05,26,17.20
2008,07,03,05,27,17.20
2008,07,03,05,28,17.20
2008,07,03,05,29,17.20
2008,07,03,05,30,17.20
2008,07,03,05,31,17.20
2008,07,03,05,32,17.20
2008,07,03,05,33,17.20
2008,07,03,05,34,17.20
2008,07,03,05,35,17.20
2008,07,03,05,36,17.20
2008,07,03,05,37,17.20
2008,07,03,05,38,17.20
2008,07,03,05,39,17.20
2008,07,03,05,40,17.20
2008,07,03,05,41,17.20
2008,07,03,05,42,17.30
2008,07,03,05,43,17.30
2008,07,03,05,44,17.30
2008,07,03,05,45,17.30
2008,07,03,05,46,17.30
2008,07,03,05,47,17.30
2008,07,03,05,48,17.30
2008,07,03,05,49,17.30
2008,07,03,05,50,17.30
2008,07,03,05,51,17.30
2008,07,03,05,52,17.30
2008,07,03,05,53,17.30
2008,07,03,05,54,17.30
2008,07,03,05,55,17.30
2008,07,03,05,56,17.30
2008,07,03,05,57,17.30
2008,07,03,05,58,17.30
2008,07,03,05,59,17.30
2008,07,03,06,00,17.30
2008,07,03,06,01,17.30
2008,07,03,06,02,17.30
2008,07,03,06,03,17.30
2008,07,03,06,04,17.40
2008,07,03,06,05,17.40
2008,07,03,06,06,17.40
2008,07,03,06,07,17.50
2008,07,03,06,08,17.50
2008,07,03,06,09,17.50
2008,07,03,06,10,17.60
2008,07,03,06,11,17.60
2008,07,03,06,12,17.60
2008,07,03,06,13,17.60
2008,07,03,06,14,17.60
2008,07,03,06,15,17.70
2008,07,03,06,16,17.70
2008,07,03,06,17,17.70
2008,07,03,06,18,17.70
2008,07,03,06,19,17.70
2008,07,03,06,20,17.80
2008,07,03,06,21,17.80
2008,07,03,06,22,17.80
2008,07,03,06,23,17.80
2008,07,03,06,24,17.80
2008,07,03,06,25,17.80
2008,07,03,06,26,17.80
2008,07,03,06,27,17.80
2008,07,03,06,28,17.80
2008,07,03,06,29,17.80
2008,07,03,06,30,17.80
2008,07,03,06,31,17.80
2008,07,03,06,32,17.80
2008,07,03,06,33,17.80
2008,07,03,06,34,17.80
2008,07,03,06,35,17.80
2008,07,03,06,36,17.80
2008,07,03,06,37,17.80
2008,07,03,06,38,17.70
2008,07,03,06,39,17.70
2008,07,03,06,40,17.70
2008,07,03,06,41,17.70
2008,07,03,06,42,17.60
2008,07,03,06,43,17.60
2008,07,03,06,44,17.60
2008,07,03,06,45,17.60
2008,07,03,06,46,17.60
2008,07,03,06,47,17.60
2008,07,03,06,48,17.60
2008,07,03,06,49,17.60
2008,07,03,06,50,17.60
2008,07,03,06,51,17.50
2008,07,03,06,52,17.50
2008,07,03,06,53,17.50
2008,07,03,06,54,17.50
2008,07,03,06,55,17.40
2008,07,03,06,56,17.40
2008,07,03,06,57,17.40
2008,07,03,06,58,17.40
2008,07,03,06,59,17.30
2008,07,03,07,00,17.30
2008,07,03,07,01,17.30
2008,07,03,07,02,17.30
2008,07,03,07,03,17.30
2008,07,03,07,04,17.30
2008,07,03,07,05,17.30
2008,07,03,07,06,17.30
2008,07,03,07,07,17.20
2008,07,03,07,08,17.20
2008,07,03,07,09,17.20
2008,07,03,07,10,17.20
2008,07,03,07,11,17.20
2008,07,03,07,12,17.20
2008,07,03,07,13,17.10
2008,07,03,07,14,17.00
2008,07,03,07,15,17.00
2008,07,03,07,16,16.90
2008,07,03,07,17,16.90
2008,07,03,07,18,16.80
2008,07,03,07,19,16.80
2008,07,03,07,20,16.70
2008,07,03,07,21,16.70
2008,07,03,07,22,16.70
2008,07,03,07,23,16.60
2008,07,03,07,24,16.60
2008,07,03,07,25,16.60
2008,07,03,07,26,16.50
2008,07,03,07,27,16.40
2008,07,03,07,28,16.40
2008,07,03,07,29,16.40
2008,07,03,07,30,16.40
2008,07,03,07,31,16.40
2008,07,03,07,32,16.40
2008,07,03,07,33,16.40
2008,07,03,07,34,16.40
2008,07,03,07,35,16.40
2008,07,03,07,36,16.40
2008,07,03,07,37,16.40
2008,07,03,07,38,16.40
2008,07,03,07,39,16.40
2008,07,03,07,40,16.40
2008,07,03,07,41,16.40
2008,07,03,07,42,16.40
2008,07,03,07,43,16.40
2008,07,03,07,44,16.40
2008,07,03,07,45,16.40
2008,07,03,07,46,16.40
2008,07,03,07,47,16.40
2008,07,03,07,48,16.40
2008,07,03,07,49,16.40
2008,07,03,07,50,16.40
2008,07,03,07,51,16.40
2008,07,03,07,52,16.30
2008,07,03,07,53,16.30
2008,07,03,07,54,16.30
2008,07,03,07,55,16.30
2008,07,03,07,56,16.30
2008,07,03,07,57,16.30
2008,07,03,07,58,16.30
2008,07,03,07,59,16.30
2008,07,03,08,00,16.30
2008,07,03,08,01,16.40
2008,07,03,08,02,16.40
2008,07,03,08,03,16.40
2008,07,03,08,04,16.40
2008,07,03,08,05,16.40
2008,07,03,08,06,16.40
2008,07,03,08,07,16.40
2008,07,03,08,08,16.40
2008,07,03,08,09,16.60
2008,07,03,08,10,16.60
2008,07,03,08,11,16.60
2008,07,03,08,12,16.70
2008,07,03,08,13,16.70
2008,07,03,08,14,16.70
2008,07,03,08,15,16.70
2008,07,03,08,16,16.70
2008,07,03,08,17,16.60
2008,07,03,08,18,16.50
2008,07,03,08,19,16.40
2008,07,03,08,20,16.30
2008,07,03,08,21,16.30
2008,07,03,08,22,16.20
2008,07,03,08,23,16.10
2008,07,03,08,24,16.00
2008,07,03,08,25,15.90
2008,07,03,08,26,15.80
2008,07,03,08,27,15.80
2008,07,03,08,28,15.80
2008,07,03,08,29,15.70
2008,07,03,08,30,15.60
2008,07,03,08,31,15.50
2008,07,03,08,32,15.50
2008,07,03,08,33,15.40
2008,07,03,08,34,15.40
2008,07,03,08,35,15.30
2008,07,03,08,36,15.30
2008,07,03,08,37,15.30
2008,07,03,08,38,15.40
2008,07,03,08,39,15.40
2008,07,03,08,40,15.50
2008,07,03,08,41,15.50
2008,07,03,08,42,15.50
2008,07,03,08,43,15.60
2008,07,03,08,44,15.70
2008,07,03,08,45,15.80
2008,07,03,08,46,15.80
2008,07,03,08,47,15.80
2008,07,03,08,48,15.90
2008,07,03,08,49,15.90
2008,07,03,08,50,16.00
2008,07,03,08,51,16.10
2008,07,03,08,52,16.10
2008,07,03,08,53,16.10
2008,07,03,08,54,16.20
2008,07,03,08,55,16.20
2008,07,03,08,56,16.20
2008,07,03,08,57,16.20
2008,07,03,08,58,16.30
2008,07,03,08,59,16.30
2008,07,03,09,00,16.30
2008,07,03,09,01,16.30
2008,07,03,09,02,16.30
2008,07,03,09,03,16.30
2008,07,03,09,04,16.30
2008,07,03,09,05,16.30
2008,07,03,09,06,16.40
2008,07,03,09,07,16.40
2008,07,03,09,08,16.40
2008,07,03,09,09,16.50
2008,07,03,09,10,16.60
2008,07,03,09,11,16.60
2008,07,03,09,12,16.70
2008,07,03,09,13,16.70
2008,07,03,09,14,16.70
2008,07,03,09,15,16.70
2008,07,03,09,16,16.80
2008,07,03,09,17,16.80
2008,07,03,09,18,16.80
2008,07,03,09,19,16.80
2008,07,03,09,20,16.80
2008,07,03,09,21,16.80
2008,07,03,09,22,16.90
2008,07,03,09,23,16.90
2008,07,03,09,24,16.90
2008,07,03,09,25,17.00
2008,07,03,09,26,17.00
2008,07,03,09,27,17.10
2008,07,03,09,28,17.10
2008,07,03,09,29,17.20
2008,07,03,09,30,17.20
2008,07,03,09,31,17.30
2008,07,03,09,32,17.30
2008,07,03,09,33,17.30
2008,07,03,09,34,17.30
2008,07,03,09,35,17.30
2008,07,03,09,36,17.30
2008,07,03,09,37,17.10
2008,07,03,09,38,17.00
2008,07,03,09,39,16.90
2008,07,03,09,40,16.90
2008,07,03,09,41,16.80
2008,07,03,09,42,16.70
2008,07,03,09,43,16.70
2008,07,03,09,44,16.70
2008,07,03,09,45,16.60
2008,07,03,09,46,16.50
2008,07,03,09,47,16.40
2008,07,03,09,48,16.40
2008,07,03,09,49,16.30
2008,07,03,09,50,16.30
2008,07,03,09,51,16.20
2008,07,03,09,52,16.20
2008,07,03,09,53,16.30
2008,07,03,09,54,16.30
2008,07,03,09,55,16.30
2008,07,03,09,56,16.40
2008,07,03,09,57,16.30
2008,07,03,09,58,16.30
2008,07,03,09,59,16.20
2008,07,03,10,00,16.20
2008,07,03,10,01,16.10
2008,07,03,10,02,16.10
2008,07,03,10,03,16.10
2008,07,03,10,04,16.10
2008,07,03,10,05,16.10
2008,07,03,10,06,16.20
2008,07,03,10,07,16.30
2008,07,03,10,08,16.30
2008,07,03,10,09,16.40
2008,07,03,10,10,16.40
2008,07,03,10,11,16.50
2008,07,03,10,12,16.60
2008,07,03,10,13,16.70
2008,07,03,10,14,16.70
2008,07,03,10,15,16.80
2008,07,03,10,16,16.80
2008,07,03,10,17,16.90
2008,07,03,10,18,16.90
2008,07,03,10,19,16.90
2008,07,03,10,20,17.00
2008,07,03,10,21,17.00
2008,07,03,10,22,17.10
2008,07,03,10,23,17.10
2008,07,03,10,24,17.10
2008,07,03,10,25,17.20
2008,07,03,10,26,17.30
2008,07,03,10,27,17.30
2008,07,03,10,28,17.30
2008,07,03,10,29,17.40
2008,07,03,10,30,17.50
2008,07,03,10,31,17.60
2008,07,03,10,32,17.70
2008,07,03,10,33,17.70
2008,07,03,10,34,17.80
2008,07,03,10,35,17.90
2008,07,03,10,36,18.00
2008,07,03,10,37,18.10
2008,07,03,10,38,18.20
2008,07,03,10,39,18.30
2008,07,03,10,40,18.40
2008,07,03,10,41,18.50
2008,07,03,10,42,18.60
2008,07,03,10,43,18.70
2008,07,03,10,44,18.70
2008,07,03,10,45,18.80
2008,07,03,10,46,18.90
2008,07,03,10,47,18.90
2008,07,03,10,48,19.00
2008,07,03,10,49,19.10
2008,07,03,10,50,19.10
2008,07,03,10,51,19.20
2008,07,03,10,52,19.20
2008,07,03,10,53,19.10
2008,07,03,10,54,19.10
2008,07,03,10,55,19.10
2008,07,03,10,56,19.10
2008,07,03,10,57,19.10
2008,07,03,10,58,19.10
2008,07,03,10,59,19.10
2008,07,03,11,00,19.10
2008,07,03,11,01,19.10
2008,07,03,11,02,19.20
2008,07,03,11,03,19.30
2008,07,03,11,04,19.40
2008,07,03,11,05,19.40
2008,07,03,11,06,19.50
2008,07,03,11,07,19.50
2008,07,03,11,08,19.60
2008,07,03,11,09,19.60
2008,07,03,11,10,19.60
2008,07,03,11,11,19.60
2008,07,03,11,12,19.40
2008,07,03,11,13,19.30
2008,07,03,11,14,19.10
2008,07,03,11,15,19.00
2008,07,03,11,16,18.70
2008,07,03,11,17,18.60
2008,07,03,11,18,18.30
2008,07,03,11,19,18.10
2008,07,03,11,20,17.90
2008,07,03,11,21,17.80
2008,07,03,11,22,17.70
2008,07,03,11,23,17.60
2008,07,03,11,24,17.40
2008,07,03,11,25,17.30
2008,07,03,11,26,17.10
2008,07,03,11,27,16.90
2008,07,03,11,28,16.80
2008,07,03,11,29,16.70
2008,07,03,11,30,16.50
2008,07,03,11,31,16.40
2008,07,03,11,32,16.40
2008,07,03,11,33,16.40
2008,07,03,11,34,16.40
2008,07,03,11,35,16.60
2008,07,03,11,36,16.60
2008,07,03,11,37,16.70
2008,07,03,11,38,16.90
2008,07,03,11,39,17.00
2008,07,03,11,40,17.20
2008,07,03,11,41,17.30
2008,07,03,11,42,17.50
2008,07,03,11,43,17.60
2008,07,03,11,44,17.70
2008,07,03,11,45,17.80
2008,07,03,11,46,17.90
2008,07,03,11,47,17.90
2008,07,03,11,48,18.00
2008,07,03,11,49,18.10
2008,07,03,11,50,18.20
2008,07,03,11,51,18.40
2008,07,03,11,52,18.50
2008,07,03,11,53,18.60
2008,07,03,11,54,18.70
2008,07,03,11,55,18.90
2008,07,03,11,56,18.90
2008,07,03,11,57,19.10
2008,07,03,11,58,19.10
2008,07,03,11,59,19.10
2008,07,03,12,00,19.10
2008,07,03,12,01,19.10
2008,07,03,12,02,19.10
2008,07,03,12,03,19.00
2008,07,03,12,04,19.10
2008,07,03,12,05,19.10
2008,07,03,12,06,19.10
2008,07,03,12,07,19.20
2008,07,03,12,08,19.30
2008,07,03,12,09,19.40
2008,07,03,12,10,19.40
2008,07,03,12,11,19.50
2008,07,03,12,12,19.60
2008,07,03,12,13,19.70
2008,07,03,12,14,19.80
2008,07,03,12,15,19.80
2008,07,03,12,16,19.80
2008,07,03,12,17,19.80
2008,07,03,12,18,19.90
2008,07,03,12,19,19.90
2008,07,03,12,20,20.10
2008,07,03,12,21,20.10
2008,07,03,12,22,20.20
2008,07,03,12,23,20.20
2008,07,03,12,24,20.40
2008,07,03,12,25,20.50
2008,07,03,12,26,20.60
2008,07,03,12,27,20.70
2008,07,03,12,28,20.70
2008,07,03,12,29,20.80
2008,07,03,12,30,20.80
2008,07,03,12,31,20.90
2008,07,03,12,32,21.00
2008,07,03,12,33,21.00
2008,07,03,12,34,21.10
2008,07,03,12,35,21.10
2008,07,03,12,36,21.30
2008,07,03,12,37,21.40
2008,07,03,12,38,21.50
2008,07,03,12,39,21.50
2008,07,03,12,40,21.30
2008,07,03,12,41,21.30
2008,07,03,12,42,21.20
2008,07,03,12,43,21.10
2008,07,03,12,44,21.10
2008,07,03,12,45,21.00
2008,07,03,12,46,20.80
2008,07,03,12,47,20.70
2008,07,03,12,48,20.60
2008,07,03,12,49,20.70
2008,07,03,12,50,20.70
2008,07,03,12,51,20.80
2008,07,03,12,52,20.80
2008,07,03,12,53,20.80
2008,07,03,12,54,20.70
2008,07,03,12,55,20.40
2008,07,03,12,56,20.20
2008,07,03,12,57,20.20
2008,07,03,12,58,20.10
2008,07,03,12,59,20.00
2008,07,03,13,00,19.90
2008,07,03,13,01,19.90
2008,07,03,13,02,19.80
2008,07,03,13,03,19.80
2008,07,03,13,04,19.80
2008,07,03,13,05,19.80
2008,07,03,13,06,19.70
2008,07,03,13,07,19.70
2008,07,03,13,08,19.70
2008,07,03,13,09,19.70
2008,07,03,13,10,19.60
2008,07,03,13,11,19.50
2008,07,03,13,12,19.50
2008,07,03,13,13,19.40
2008,07,03,13,14,19.40
2008,07,03,13,15,19.40
2008,07,03,13,16,19.40
2008,07,03,13,17,19.40
2008,07,03,13,18,19.40
2008,07,03,13,19,19.50
2008,07,03,13,20,19.50
2008,07,03,13,21,19.60
2008,07,03,13,22,19.60
2008,07,03,13,23,19.50
2008,07,03,13,24,19.50
2008,07,03,13,25,19.60
2008,07,03,13,26,19.60
2008,07,03,13,27,19.60
2008,07,03,13,28,19.60
2008,07,03,13,29,19.60
2008,07,03,13,30,19.60
2008,07,03,13,31,19.70
2008,07,03,13,32,19.70
2008,07,03,13,33,19.80
2008,07,03,13,34,19.80
2008,07,03,13,35,19.90
2008,07,03,13,36,20.00
2008,07,03,13,37,20.10
2008,07,03,13,38,20.10
2008,07,03,13,39,20.10
2008,07,03,13,40,19.90
2008,07,03,13,41,19.90
2008,07,03,13,42,19.80
2008,07,03,13,43,19.80
2008,07,03,13,44,19.80
2008,07,03,13,45,19.90
2008,07,03,13,46,19.90
2008,07,03,13,47,20.00
2008,07,03,13,48,20.20
2008,07,03,13,49,20.20
2008,07,03,13,50,20.30
2008,07,03,13,51,20.30
2008,07,03,13,52,20.40
2008,07,03,13,53,20.50
2008,07,03,13,54,20.60
2008,07,03,13,55,20.60
2008,07,03,13,56,20.60
2008,07,03,13,57,20.60
2008,07,03,13,58,20.60
2008,07,03,13,59,20.80
2008,07,03,14,00,21.00
2008,07,03,14,01,21.20
2008,07,03,14,02,21.30
2008,07,03,14,03,21.30
2008,07,03,14,04,21.30
2008,07,03,14,05,21.50
2008,07,03,14,06,21.60
2008,07,03,14,07,21.80
2008,07,03,14,08,21.90
2008,07,03,14,09,22.00
2008,07,03,14,10,22.20
2008,07,03,14,11,22.30
2008,07,03,14,12,22.50
2008,07,03,14,13,22.50
2008,07,03,14,14,22.60
2008,07,03,14,15,22.70
2008,07,03,14,16,22.80
2008,07,03,14,17,22.70
2008,07,03,14,18,22.50
2008,07,03,14,19,22.40
2008,07,03,14,20,22.20
2008,07,03,14,21,22.00
2008,07,03,14,22,21.80
2008,07,03,14,23,21.80
2008,07,03,14,24,21.70
2008,07,03,14,25,21.70
2008,07,03,14,26,21.70
2008,07,03,14,27,21.80
2008,07,03,14,28,21.90
2008,07,03,14,29,22.00
2008,07,03,14,30,22.10
2008,07,03,14,31,22.20
2008,07,03,14,32,22.30
2008,07,03,14,33,22.40
2008,07,03,14,34,22.50
2008,07,03,14,35,22.70
2008,07,03,14,36,22.80
2008,07,03,14,37,22.90
2008,07,03,14,38,22.90
2008,07,03,14,39,22.90
2008,07,03,14,40,22.50
2008,07,03,14,41,22.20
2008,07,03,14,42,21.90
2008,07,03,14,43,21.80
2008,07,03,14,44,21.70
2008,07,03,14,45,21.60
2008,07,03,14,46,21.60
2008,07,03,14,47,21.50
2008,07,03,14,48,21.30
2008,07,03,14,49,21.20
2008,07,03,14,50,21.20
2008,07,03,14,51,21.20
2008,07,03,14,52,21.30
2008,07,03,14,53,21.30
2008,07,03,14,54,21.50
2008,07,03,14,55,21.60
2008,07,03,14,56,21.60
2008,07,03,14,57,21.70
2008,07,03,14,58,21.80
2008,07,03,14,59,21.80
2008,07,03,15,00,21.90
2008,07,03,15,01,22.00
2008,07,03,15,02,22.00
2008,07,03,15,03,22.00
2008,07,03,15,04,22.00
2008,07,03,15,05,21.90
2008,07,03,15,06,22.00
2008,07,03,15,07,22.10
2008,07,03,15,08,22.20
2008,07,03,15,09,22.30
2008,07,03,15,10,22.50
2008,07,03,15,11,22.50
2008,07,03,15,12,22.50
2008,07,03,15,13,22.60
2008,07,03,15,14,22.70
2008,07,03,15,15,22.80
2008,07,03,15,16,22.80
2008,07,03,15,17,22.90
2008,07,03,15,18,23.00
2008,07,03,15,19,23.20
2008,07,03,15,20,23.40
2008,07,03,15,21,23.60
2008,07,03,15,22,23.60
2008,07,03,15,23,23.70
2008,07,03,15,24,23.90
2008,07,03,15,25,24.00
2008,07,03,15,26,24.10
2008,07,03,15,27,24.20
2008,07,03,15,28,24.30
2008,07,03,15,29,24.40
2008,07,03,15,30,24.50
2008,07,03,15,31,24.60
2008,07,03,15,32,24.70
2008,07,03,15,33,24.80
2008,07,03,15,34,24.80
2008,07,03,15,35,24.90
2008,07,03,15,36,24.90
2008,07,03,15,37,25.00
2008,07,03,15,38,25.00
2008,07,03,15,39,24.80
2008,07,03,15,40,24.80
2008,07,03,15,41,24.70
2008,07,03,15,42,24.50
2008,07,03,15,43,24.30
2008,07,03,15,44,24.40
2008,07,03,15,45,24.50
2008,07,03,15,46,24.60
2008,07,03,15,47,24.60
2008,07,03,15,48,24.60
2008,07,03,15,49,24.50
2008,07,03,15,50,24.50
2008,07,03,15,51,24.50
2008,07,03,15,52,24.60
2008,07,03,15,53,24.70
2008,07,03,15,54,24.70
2008,07,03,15,55,24.70
2008,07,03,15,56,24.60
2008,07,03,15,57,24.50
2008,07,03,15,58,24.30
2008,07,03,15,59,24.30
2008,07,03,16,00,24.40
2008,07,03,16,01,24.50
2008,07,03,16,02,24.50
2008,07,03,16,03,24.50
2008,07,03,16,04,24.60
2008,07,03,16,05,24.70
2008,07,03,16,06,24.70
2008,07,03,16,07,24.70
2008,07,03,16,08,24.70
2008,07,03,16,09,24.70
2008,07,03,16,10,24.60
2008,07,03,16,11,24.50
2008,07,03,16,12,24.40
2008,07,03,16,13,24.30
2008,07,03,16,14,24.30
2008,07,03,16,15,24.20
2008,07,03,16,16,24.30
2008,07,03,16,17,24.30
2008,07,03,16,18,24.40
2008,07,03,16,19,24.50
2008,07,03,16,20,24.60
2008,07,03,16,21,24.60
2008,07,03,16,22,24.70
2008,07,03,16,23,24.70
2008,07,03,16,24,24.70
2008,07,03,16,25,24.60
2008,07,03,16,26,24.50
2008,07,03,16,27,24.40
2008,07,03,16,28,24.30
2008,07,03,16,29,24.30
2008,07,03,16,30,24.20
2008,07,03,16,31,24.20
2008,07,03,16,32,24.10
2008,07,03,16,33,24.10
2008,07,03,16,34,24.10
2008,07,03,16,35,24.00
2008,07,03,16,36,23.90
2008,07,03,16,37,23.80
2008,07,03,16,38,23.80
2008,07,03,16,39,23.80
2008,07,03,16,40,23.80
2008,07,03,16,41,23.80
2008,07,03,16,42,23.80
2008,07,03,16,43,23.80
2008,07,03,16,44,23.70
2008,07,03,16,45,23.70
2008,07,03,16,46,23.80
2008,07,03,16,47,23.80
2008,07,03,16,48,23.90
2008,07,03,16,49,23.90
2008,07,03,16,50,23.90
2008,07,03,16,51,23.90
2008,07,03,16,52,23.90
2008,07,03,16,53,23.80
2008,07,03,16,54,23.80
2008,07,03,16,55,23.80
2008,07,03,16,56,23.80
2008,07,03,16,57,23.80
2008,07,03,16,58,23.90
2008,07,03,16,59,23.90
2008,07,03,17,00,23.90
2008,07,03,17,01,23.90
2008,07,03,17,02,24.00
2008,07,03,17,03,24.10
2008,07,03,17,04,24.00
2008,07,03,17,05,24.10
2008,07,03,17,06,24.10
2008,07,03,17,07,24.10
2008,07,03,17,08,24.10
2008,07,03,17,09,24.10
2008,07,03,17,10,24.10
2008,07,03,17,11,24.10
2008,07,03,17,12,24.10
2008,07,03,17,13,24.10
2008,07,03,17,14,24.10
2008,07,03,17,15,24.20
2008,07,03,17,16,24.20
2008,07,03,17,17,24.10
2008,07,03,17,18,24.10
2008,07,03,17,19,24.10